Sigfox identifier Datetime Temperature Humidity SNR
00395307 2018-10-09 09:06:26 21.3 38 13.7
00395307 2018-10-09 07:58:32 21.2 37 13.7
00395307 2018-10-09 06:50:37 21.2 37 13.7
00395307 2018-10-09 05:42:43 21.3 37 13.6
00395307 2018-10-09 01:10:55 21.3 37 12.3
00395307 2018-10-09 00:02:58 21.2 36 12.3
00395307 2018-10-08 22:55:03 21.2 36 12.4
00395307 2018-10-08 21:47:05 21.2 36 12.4
00395307 2018-10-08 20:39:08 21.2 36 11.9
00395307 2018-10-08 19:31:08 21 36 11.6
00395307 2018-10-08 18:23:11 21 36 11
00395307 2018-10-08 16:07:18 21 36 11.1
00395307 2018-10-08 14:59:19 20.9 35 11.1
00395307 2018-10-08 13:51:25 20.8 35 11
00395307 2018-10-08 11:35:25 20.8 36 10.5
00395307 2018-10-08 08:11:36 20.8 37 10.3
00395307 2018-10-08 05:55:42 20.8 37 10.5
00395307 2018-10-08 04:47:43 20.8 37 10.5
00395307 2018-10-08 03:39:48 20.8 37 10.3
00395307 2018-10-08 02:31:54 20.9 37 10.4
00395307 2018-10-08 00:15:59 21 38 17
00395307 2018-10-07 23:08:04 21 38 19.5
00395307 2018-10-07 22:00:05 21 38 19.6
00395307 2018-10-07 20:52:08 21 38 19.6
00395307 2018-10-07 19:44:13 21 38 19.6
00395307 2018-10-07 18:36:12 21 38 19.6
00395307 2018-10-07 17:28:17 21 38 19.7
00395307 2018-10-07 16:20:20 21 38 19.7
00395307 2018-10-07 15:12:15 21 38 19.7
00395307 2018-10-07 14:04:12 21 38 19.7
00395307 2018-10-07 12:56:09 21 38 19.7
00395307 2018-10-07 11:48:08 21 38 19.7
00395307 2018-10-07 10:40:10 21 38 19.7
00395307 2018-10-07 09:32:09 21 38 19.7
00395307 2018-10-07 08:24:06 21 38 19.7
00395307 2018-10-07 07:16:05 21.1 38 19.8
00395307 2018-10-07 06:08:04 21.1 38 19.7
00395307 2018-10-07 04:59:58 21.1 38 19.7
00395307 2018-10-07 03:51:54 21.2 38 19.7
00395307 2018-10-07 02:43:55 21.2 38 19.7
00395307 2018-10-07 01:35:53 21.2 38 19.7
00395307 2018-10-07 00:27:53 21.3 38 19.7
00395307 2018-10-06 23:19:55 21.3 38 19.8
00395307 2018-10-06 22:11:56 21.3 38 19.9
00395307 2018-10-06 21:03:54 21.3 38 19.8
00395307 2018-10-06 19:55:55 21.3 38 17.5
00395307 2018-10-06 18:47:57 21.3 38 12.3
00395307 2018-10-06 17:39:54 21.3 38 12.1
00395307 2018-10-06 16:31:50 21.3 38 12.1
00395307 2018-10-06 15:23:51 21.3 38 11.8
00395307 2018-10-06 14:15:52 21.3 38 12.1
00395307 2018-10-06 13:07:52 21.3 38 11.9
00395307 2018-10-06 11:59:57 21.3 38 12.2
00395307 2018-10-06 10:51:58 21.4 38 12.9
00395307 2018-10-06 09:43:55 21.4 38 13.3
00395307 2018-10-06 08:35:57 21.4 38 13.3
00395307 2018-10-06 07:27:59 21.4 38 13.8
00395307 2018-10-06 06:20:05 21.5 38 13.7
00395307 2018-10-06 05:12:04 21.5 38 13.8
00395307 2018-10-06 04:04:07 21.5 38 14.4
00395307 2018-10-06 02:56:04 21.5 38 14.3
00395307 2018-10-06 01:48:05 21.5 38 14.3
00395307 2018-10-05 23:31:58 21.5 38 14.6
00395307 2018-10-05 22:23:57 21.5 38 14.6
00395307 2018-10-05 21:15:58 21.5 38 14.6
00395307 2018-10-05 20:07:54 21.5 38 14.8
00395307 2018-10-05 18:59:53 21.5 38 15.1
00395307 2018-10-05 17:51:54 21.5 38 14.9
00395307 2018-10-05 16:43:51 21.5 38 14.6
00395307 2018-10-05 15:35:49 21.5 37 14.7
00395307 2018-10-05 14:27:49 21.4 36 14.9
00395307 2018-10-05 13:19:48 21.3 36 14.9
00395307 2018-10-05 12:11:47 21.2 35 15.2
00395307 2018-10-05 11:03:43 21.1 33 15.3
00395307 2018-10-05 09:55:44 21 33 15.7
00395307 2018-10-05 08:47:46 21 32 15.6
00395307 2018-10-05 07:39:44 21 32 15.8
00395307 2018-10-05 06:31:44 21 32 15.8
00395307 2018-10-05 05:23:47 21 32 16
00395307 2018-10-05 04:15:47 21 32 16.2
00395307 2018-10-05 03:07:40 21 32 16.3
00395307 2018-10-05 01:59:37 21 32 16.4
00395307 2018-10-05 00:51:38 21 33 16.4
00395307 2018-10-04 23:43:34 21 33 16.5
00395307 2018-10-04 22:35:35 21 33 16.2
00395307 2018-10-04 21:27:33 21 32 18.4
00395307 2018-10-04 20:19:32 21 32 18.5
00395307 2018-10-04 19:11:31 21 32 18.3
00395307 2018-10-04 18:03:27 20.8 32 18.3
00395307 2018-10-04 16:55:28 20.8 32 18.3
00395307 2018-10-04 15:47:23 20.8 32 18.3
00395307 2018-10-04 14:39:25 20.8 31 18.1
00395307 2018-10-04 13:31:26 20.7 31 18.1
00395307 2018-10-04 12:23:31 20.6 32 18.2
00395307 2018-10-04 11:15:28 20.6 33 18.2
00395307 2018-10-04 10:07:30 20.6 34 18.2
00395307 2018-10-04 08:59:29 20.5 34 18.2
00395307 2018-10-04 07:51:26 20.5 35 18
00395307 2018-10-04 06:43:22 20.6 37 18
00395307 2018-10-04 05:35:22 20.6 37 17.8
00395307 2018-10-04 04:27:20 20.6 38 17.7
00395307 2018-10-04 03:19:19 20.6 38 17.5
00395307 2018-10-04 02:11:18 20.6 38 17.5
00395307 2018-10-04 01:03:16 20.6 39 17.2
00395307 2018-10-03 23:55:15 20.6 39 16.9
00395307 2018-10-03 22:47:12 20.6 40 16.8
00395307 2018-10-03 21:39:09 20.7 40 16.5
00395307 2018-10-03 20:31:09 20.7 40 16.8
00395307 2018-10-03 19:23:11 20.7 40 16.6
00395307 2018-10-03 18:15:10 20.7 41 16.8
00395307 2018-10-03 17:07:13 20.8 42 13.4
00395307 2018-10-03 15:59:11 20.8 41 13.2
00395307 2018-10-03 13:43:08 20.6 41 13.2
00395307 2018-10-03 12:35:07 20.6 40 13.2
00395307 2018-10-03 11:27:01 20.6 40 13.2
00395307 2018-10-03 10:19:01 20.6 39 13.1
00395307 2018-10-03 09:10:58 20.6 39 13.1
00395307 2018-10-03 08:02:55 20.6 39 13.1
00395307 2018-10-03 06:54:54 20.6 40 13.6
00395307 2018-10-03 05:46:51 20.6 40 14.2
00395307 2018-10-03 04:38:45 20.6 40 14.2
00395307 2018-10-03 03:30:44 20.6 40 14.3
00395307 2018-10-03 02:22:42 20.6 40 14.4
00395307 2018-10-03 01:14:43 20.6 40 14.6
00395307 2018-10-03 00:06:43 20.6 40 14.8
00395307 2018-10-02 22:58:39 20.6 40 14.9
00395307 2018-10-02 21:50:35 20.6 40 15
00395307 2018-10-02 20:42:39 20.6 40 15
00395307 2018-10-02 19:34:39 20.6 40 15.2
00395307 2018-10-02 18:26:35 20.6 40 15.4
00395307 2018-10-02 17:18:32 20.6 41 15.6
00395307 2018-10-02 16:10:27 20.4 41 15.6
00395307 2018-10-02 15:02:25 20.5 41 15.3
00395307 2018-10-02 13:54:20 20.6 42 15.3
00395307 2018-10-02 12:46:14 20.6 43 15
00395307 2018-10-02 09:22:06 20.4 44 15.2
00395307 2018-10-02 08:14:03 20.2 42 15.2
00395307 2018-10-02 07:06:02 20.3 43 15.7
00395307 2018-10-02 03:41:58 20.4 43 16.3
00395307 2018-10-02 02:33:56 20.4 44 17
00395307 2018-10-02 01:25:57 20.4 44 17.9
00395307 2018-10-02 00:18:02 20.4 43 19
00395307 2018-10-01 23:09:58 20.4 43 20.7
00395307 2018-10-01 17:29:56 20 46 21
00395307 2018-10-01 16:22:00 18.5 57 0